Вернуться в каталог

IRIDIUM 176

АктивенСвязьPO
NORAD 43923·PAYLOAD·🇺🇸 United States

Запущен Jan 11, 2019 с Vandenberg Space Force Base

Loading…

Ближайшие Пролёты (ближайшие 24 часа)

TLE

СвежийSource: CelesTrak SupGP

Эпоха: Sep 14, 2026, 09:59 UTC

1 43923C 19002B   26257.41631944 -.00000984  00000+0 -15630-3 0  2574
2 43923  86.6097 316.2512 0002447  95.3579 348.1305 14.72245206    12

Отслеживайте IRIDIUM 176 в реальном времени с AllMySat

Download on the App Store